Weather Roundup
Issued by NWS Chicago, IL

Home | Current Version | Previous Version | Graphics & Text | Print | Product List | Glossary On
Versions: 1 2 3 4 5 6 7 8 9 10 11 12 13 14 15 16 17 18 19 20 21 22 23 24 25 26 27 28 29 30 31 32 33 34 35 36 37 38 39 40 41 42 43 44 45 46 47 48 49 50
000
NZUS59 KLOT 281922
HRRLOT

CHICAGO AREA WEATHER ROUNDUP
NATIONAL WEATHER SERVICE CHICAGO/ROMEOVILLE IL
200 PM CDT FRI AUG 28 2015

NOTE: "FAIR" INDICATES FEW OR NO CLOUDS BELOW 12,000 FEET WITH NO
SIGNIFICANT WEATHER AND/OR OBSTRUCTIONS TO VISIBILITY.

* THESE STATIONS ARE NOT UNDER NWS QUALITY CONTROL. THEY ALSO MAY NOT
  REPORT WEATHER SUCH AS PRECIPITATION OR FOG.

ILZ005-006-012>014-019>023-282000-
NORTHEAST ILLINOIS

CITY           SKY/WX    TMP DP  RH WIND       PRES   REMARKS
OHARE          CLOUDY    71  59  65 SW6       30.12F
MIDWAY         CLOUDY    74  59  59 SW7       30.12F
AURORA         CLOUDY    71  62  73 S6        30.13F
LANSING*       CLOUDY    74  61  63 S6        30.13S
JOLIET*        CLOUDY    74  64  71 CALM      30.13S
WAUKEGAN       LGT RAIN  67  60  78 SE6       30.12S
DUPAGE AIRPORT CLOUDY    70  60  70 S5        30.12F
WHEELING       CLOUDY    72  58  61 SW6       30.13F
KANKAKEE*      CLOUDY    77  63  62 CALM      30.13F
MORRIS*        CLOUDY    73  64  73 E5        30.11F
LEWIS AIRPORT* CLOUDY    72  60  66 CALM      30.13S
NORTHERLY IS     N/A     73  57  57 SW7         N/A
$$

WIZ051-052-058>065-066-070>072-282000-
SOUTHEAST WISCONSIN

CITY           SKY/WX    TMP DP  RH WIND       PRES   REMARKS
MILWAUKEE      CLOUDY    73  60  63 SW5       30.11F
KENOSHA*       CLOUDY    73  61  65 SW7       30.13S
RACINE*        CLOUDY    69  58  67 S7        30.14S
BURLINGTON     CLOUDY    68  60  76 S3        30.12S
WAUKESHA       SUNNY     68  61  77 S5        30.13F
WEST BEND      CLOUDY    70  59  68 CALM      30.12S
$$

INZ001>003-010>013-019-020-282000-
NORTHWEST INDIANA

CITY           SKY/WX    TMP DP  RH WIND       PRES   REMARKS
GARY*          CLOUDY    75  57  53 SW16      30.14F
MICHIGAN CITY* NOT AVBL
RENSSELAER*    NOT AVBL
VALPARAISO     CLOUDY    77  60  55 SW8       30.15S
$$

LMZ740>746-282000-
SOUTHERN LAKE MICHIGAN

STATION/POSITION TIME  SKY/WX   TEMP WIND        PRES    VSBY
                                AIR  DIR/SP/G
                 (UTC)          (F)  (DEG/KT/KT) (MB)    (MI)
HARRISON CRIB    1800            71  210/  9/ 12   N/A
BURNHAM HARBOR   1900            73  230/  5/ 10   N/A
CALUMET HARBOR   NOT AVBL
BURNS HARBOR     1800            74  220/  7/ 11 1021.0F
MICHIGAN CITY    1800            73  210/  8/  9   N/A
$$

ABBREVIATIONS USED IN REMARKS
   TC - TEMPERATURE IN CELSIUS
  WCI - WIND CHILL INDEX
   HX - HEAT INDEX
  VSB - VISIBILITY
$$



USA.gov is the U.S. government's official web portal to all federal, state and local government web resources and services.